HULIANWANG DIGUI-123

Last updated on Fri Dec 19 2025 00:02:10 GMT+0000 (Coordinated Universal Time)

1 67063U 25295E 25352.58992245 .00000182 00000+0 14282-3 0 9996 2 67063 50.0061 347.5326 0012477 273.0081 86.9405 14.25887512 957
UTC large
Height (km)
Speed (km/s)
/
Latitude / Longitude
Inclination (degrees)
Orbital Period (minutes)
Azimuth
Elevation
Range (km)
Doppler Factor

Next 0 passes for location: London (51.5072 / 0.1276)

Sorry there are no passes over London.